Date String (YYYY-MM-DD hh:mm:ss) UTC,Instrument flags,absolute air pressure of the measurement (hPa),sample flow rate (lpm),inlet stack bypass flow (lpm),air temperature of the measurement (°C),ambient temperature measured by the external sensor (°C),aerosol sample conditioner tube jacket temperature (°C),OPC LED temperature (°C),internal box temperature (°C),relative humidity of the measurement (%),span deviation,mass concentration of particles derived from Lorenz-Mie calculation of OPC scattering (μg/m³),mass concentration of particles derived from Lorenz-Mie calculation of OPC scattering (μg/m³),mass concentration of particles derived from Lorenz-Mie calculation of OPC scattering (μg/m³)
DateTimeUTC,F1_M11,P_M11,Q1_M11,Q2_M11,T1_M11,T2_M11,T3_M11,T4_M11,T5_M11,U1_M11,ZSPAN_M11,X0_M11,X2_M11,X1_M11
2023-11-12 11:00:00,SystemResetWarning,0833.3,5.00,000.00,023.6,022.6,000.0,032.0,025.0,7.2,0000.0,0004.01,0001.53,0001.07
2023-11-12 11:01:00,SystemResetWarning,0833.0,5.00,000.00,023.6,022.6,000.0,032.0,025.0,7.3,0000.0,0004.08,0001.54,0001.07
2023-11-12 11:02:00,SystemResetWarning,0833.2,5.00,000.00,023.6,022.5,000.0,032.0,025.0,7.3,0000.0,0004.09,0001.56,0001.07
2023-11-12 11:03:00,SystemResetWarning,0833.3,5.00,000.00,023.6,022.5,000.0,032.0,024.9,7.3,0000.0,0004.11,0001.55,0001.06
2023-11-12 11:04:00,SystemResetWarning,0833.0,5.00,000.00,023.6,022.5,000.0,032.0,025.0,7.0,0000.0,0004.16,0001.55,0001.07
2023-11-12 11:05:00,SystemResetWarning,0833.3,5.00,000.00,023.6,022.5,000.0,032.0,025.0,7.1,0000.0,0004.13,0001.54,0001.06
2023-11-12 11:06:00,SystemResetWarning,0833.2,4.99,000.00,023.6,022.5,000.0,032.0,024.9,7.1,0000.0,0004.12,0001.53,0001.05
2023-11-12 11:07:00,SystemResetWarning,0832.9,5.00,000.00,023.5,022.5,000.0,031.9,024.9,7.0,0000.0,0003.48,0001.56,0001.04
2023-11-12 11:08:00,SystemResetWarning,0833.0,5.00,000.00,023.5,022.5,000.0,031.9,025.0,7.0,0000.0,0002.87,0001.59,0001.05
2023-11-12 11:09:00,SystemResetWarning,0832.9,5.00,000.00,023.5,022.5,000.0,031.9,025.0,7.0,0000.0,0002.83,0001.60,0001.06
2023-11-12 11:10:00,SystemResetWarning,0833.0,5.00,000.00,023.5,022.5,000.0,031.9,025.0,7.1,0000.0,0002.70,0001.61,0001.06
2023-11-12 11:11:00,SystemResetWarning,0832.9,5.00,000.00,023.5,022.5,000.0,031.9,025.0,7.2,0000.0,0002.72,0001.64,0001.07
2023-11-12 11:12:00,SystemResetWarning,0832.9,5.00,000.00,023.5,022.5,000.0,031.9,025.0,7.0,0000.0,0002.72,0001.65,0001.08
2023-11-12 11:13:00,SystemResetWarning,0832.9,5.00,000.00,023.5,022.4,000.0,031.9,024.9,7.0,0000.0,0002.63,0001.61,0001.08
2023-11-12 11:14:00,SystemResetWarning,0833.1,5.00,000.00,023.5,022.4,000.0,031.9,024.9,7.0,0000.0,0002.63,0001.59,0001.08
2023-11-12 11:15:00,SystemResetWarning,0833.1,5.00,000.00,023.5,022.4,000.0,031.9,024.8,6.9,0000.0,0002.55,0001.57,0001.08
2023-11-12 11:16:00,SystemResetWarning,0833.1,5.00,000.00,023.5,022.4,000.0,031.9,024.9,6.9,0000.0,0002.60,0001.58,0001.08
2023-11-12 11:17:00,SystemResetWarning,0833.2,5.00,000.00,023.5,022.4,000.0,031.9,024.9,6.8,0000.0,0002.79,0001.63,0001.08
2023-11-12 11:18:00,SystemResetWarning,0832.9,5.01,000.00,023.5,022.3,000.0,031.9,024.8,6.9,0000.0,0002.75,0001.62,0001.09
2023-11-12 11:19:00,SystemResetWarning,0832.9,5.00,000.00,023.5,022.3,000.0,031.9,024.8,6.9,0000.0,0002.66,0001.60,0001.09
2023-11-12 11:20:00,SystemResetWarning,0832.9,5.00,000.00,023.4,022.3,000.0,031.9,024.9,6.8,0000.0,0002.75,0001.60,0001.09
2023-11-12 11:21:00,SystemResetWarning,0832.9,5.00,000.00,023.4,022.3,000.0,031.9,024.9,6.8,0000.0,0002.75,0001.57,0001.08
2023-11-12 11:22:00,SystemResetWarning,0832.9,5.00,000.00,023.4,022.3,000.0,031.8,024.8,6.9,0000.0,0002.70,0001.54,0001.08
2023-11-12 11:23:00,SystemResetWarning,0832.9,5.00,000.00,023.4,022.3,000.0,031.8,024.8,6.9,0000.0,0002.63,0001.52,0001.08
2023-11-12 11:24:00,SystemResetWarning,0833.0,4.99,000.00,023.4,022.3,000.0,031.8,024.8,6.7,0000.0,0003.31,0001.57,0001.08
2023-11-12 11:25:00,SystemResetWarning,0833.1,4.99,000.00,023.4,022.3,000.0,031.8,024.8,6.7,0000.0,0003.97,0001.57,0001.08
2023-11-12 11:26:00,SystemResetWarning,0833.0,5.00,000.00,023.4,022.3,000.0,031.8,024.8,6.8,0000.0,0003.98,0001.57,0001.08
2023-11-12 11:27:00,SystemResetWarning,0833.0,5.00,000.00,023.4,022.3,000.0,031.8,024.8,6.7,0000.0,0003.92,0001.57,0001.09
2023-11-12 11:28:00,SystemResetWarning,0833.2,5.00,000.00,023.4,022.3,000.0,031.8,024.8,6.7,0000.0,0003.83,0001.56,0001.10
2023-11-12 11:29:00,SystemResetWarning,0833.1,5.00,000.00,023.4,022.3,000.0,031.8,024.9,6.6,0000.0,0003.83,0001.55,0001.11
2023-11-12 11:30:00,SystemResetWarning,0833.2,5.00,000.00,023.4,022.4,000.0,031.8,024.9,6.8,0000.0,0003.91,0001.56,0001.13
2023-11-12 11:31:00,SystemResetWarning,0833.2,5.00,000.00,023.4,022.4,000.0,031.8,024.9,6.7,0000.0,0003.93,0001.59,0001.14
2023-11-12 11:32:00,SystemResetWarning,0833.1,5.00,000.00,023.4,022.4,000.0,031.8,024.9,6.4,0000.0,0003.94,0001.63,0001.16
2023-11-12 11:33:00,SystemResetWarning,0833.1,5.00,000.00,023.4,022.4,000.0,031.8,024.9,6.4,0000.0,0004.12,0001.68,0001.16
2023-11-12 11:34:00,SystemResetWarning,0833.2,5.00,000.00,023.4,022.4,000.0,031.8,024.9,6.5,0000.0,0004.17,0001.65,0001.16
2023-11-12 11:35:00,SystemResetWarning,0833.2,5.00,000.00,023.4,022.4,000.0,031.8,024.8,6.6,0000.0,0003.86,0001.64,0001.17
2023-11-12 11:36:00,SystemResetWarning,0833.2,5.00,000.00,023.4,022.3,000.0,031.8,024.8,6.7,0000.0,0003.61,0001.68,0001.17
2023-11-12 11:37:00,SystemResetWarning,0833.2,5.00,000.00,023.4,022.3,000.0,031.8,024.8,6.7,0000.0,0004.08,0001.72,0001.19
2023-11-12 11:38:00,SystemResetWarning,0833.2,5.00,000.00,023.4,022.3,000.0,031.8,024.8,6.7,0000.0,0004.23,0001.77,0001.20
2023-11-12 11:39:00,SystemResetWarning,0833.1,5.00,000.00,023.4,022.3,000.0,031.8,024.8,6.6,0000.0,0004.32,0001.79,0001.20
2023-11-12 11:40:00,SystemResetWarning,0833.1,5.00,000.00,023.4,022.2,000.0,031.7,024.8,6.7,0000.0,0004.34,0001.81,0001.22
2023-11-12 11:41:00,SystemResetWarning,0833.1,5.00,000.00,023.3,022.2,000.0,031.7,024.8,6.7,0000.0,0004.31,0001.82,0001.22
2023-11-12 11:42:00,SystemResetWarning,0833.2,5.00,000.00,023.3,022.3,000.0,031.7,024.8,6.7,0000.0,0004.32,0001.82,0001.22
2023-11-12 11:43:00,SystemResetWarning,0833.2,5.00,000.00,023.3,022.2,000.0,031.7,024.7,6.7,0000.0,0004.45,0001.84,0001.23
2023-11-12 11:44:00,SystemResetWarning,0833.2,5.00,000.00,023.3,022.2,000.0,031.7,024.7,6.7,0000.0,0004.50,0001.87,0001.24
2023-11-12 11:45:00,SystemResetWarning,0833.2,5.00,000.00,023.3,022.3,000.0,031.7,024.8,6.7,0000.0,0004.67,0001.89,0001.25
2023-11-12 11:46:00,SystemResetWarning,0833.2,5.00,000.00,023.3,022.3,000.0,031.7,024.8,6.8,0000.0,0004.96,0001.95,0001.26
2023-11-12 11:47:00,SystemResetWarning,0833.2,5.00,000.00,023.3,022.3,000.0,031.7,024.8,6.9,0000.0,0005.46,0001.93,0001.27
2023-11-12 11:48:00,SystemResetWarning,0833.3,4.99,000.00,023.3,022.3,000.0,031.7,024.8,7.0,0000.0,0005.20,0001.96,0001.28
2023-11-12 11:49:00,SystemResetWarning,0833.4,4.99,000.00,023.3,022.2,000.0,031.7,024.8,6.9,0000.0,0005.21,0001.96,0001.27
2023-11-12 11:50:00,SystemResetWarning,0833.4,5.00,000.00,023.3,022.3,000.0,031.7,024.8,6.9,0000.0,0005.11,0001.92,0001.27
2023-11-12 11:51:00,SystemResetWarning,0833.3,5.00,000.00,023.3,022.3,000.0,031.7,024.8,6.9,0000.0,0005.09,0001.90,0001.27
2023-11-12 11:52:00,SystemResetWarning,0833.3,5.00,000.00,023.3,022.2,000.0,031.7,024.8,6.8,0000.0,0005.14,0001.91,0001.27
2023-11-12 11:53:00,SystemResetWarning,0833.4,5.00,000.00,023.3,022.2,000.0,031.7,024.7,6.8,0000.0,0005.18,0001.90,0001.27
2023-11-12 11:54:00,SystemResetWarning,0833.4,5.00,000.00,023.3,022.2,000.0,031.7,024.7,7.0,0000.0,0005.16,0001.86,0001.25
2023-11-12 11:55:00,SystemResetWarning,0833.4,5.00,000.00,023.3,022.2,000.0,031.7,024.7,7.0,0000.0,0005.06,0001.80,0001.24
2023-11-12 11:56:00,SystemResetWarning,0833.3,5.00,000.00,023.3,022.2,000.0,031.7,024.7,7.0,0000.0,0004.92,0001.77,0001.24
2023-11-12 11:57:00,SystemResetWarning,0833.3,5.00,000.00,023.3,022.2,000.0,031.7,024.6,6.9,0000.0,0004.81,0001.78,0001.24
2023-11-12 11:58:00,SystemResetWarning,0833.3,5.00,000.00,023.3,022.2,000.0,031.7,024.7,6.8,0000.0,0004.00,0001.80,0001.23
2023-11-12 11:59:00,SystemResetWarning,0833.3,5.00,000.00,023.3,022.2,000.0,031.7,024.7,6.8,0000.0,0003.57,0001.79,0001.22
